W5IM Weather Reports


time (UTC)temp
C
wind
direction
speed
KPH
gust
KPH
rain 1hr
cm
rain 24hr
cm
rain mn
cm
humidity
%
barometer
mb
20260510130518 23 178 3.2 8.0 0.00 0.00 0.00 94 1010.6
20260510130017 23 192 3.2 4.8 0.00 0.00 0.00 94 1010.6
20260510124517 23 188 4.8 8.0 0.00 0.00 0.00 95 1010.3
20260510124017 23 165 4.8 4.8 0.00 0.00 0.00 95 1010.3
20260510123518 23 164 3.2 4.8 0.00 0.00 0.00 95 1010.2
20260510123017 23 201 3.2 8.0 0.00 0.00 0.00 95 1010.0
20260510121518 23 171 4.8 8.0 0.00 0.00 0.00 95 1010.0
20260510121018 23 156 8.0 11.3 0.00 0.00 0.00 95 1010.1
20260510120018 23 138 4.8 9.7 0.00 0.00 0.00 95 1010.0
20260510115517 23 149 4.8 8.0 0.00 0.00 0.00 95 1010.1
20260510115018 23 144 8.0 9.7 0.00 0.00 0.00 95 1010.1
20260510114018 23 103 0.0 1.6 0.00 0.00 0.00 95 1010.0
20260510112518 23 178 1.6 4.8 0.00 0.00 0.00 95 1010.0
20260510112018 23 174 0.0 3.2 0.00 0.00 0.00 95 1009.9
20260510111018 23 203 3.2 4.8 0.00 0.03 0.00 95 1009.9
20260510110518 23 205 3.2 4.8 0.00 0.03 0.00 95 1010.0
20260510105517 23 185 4.8 9.7 0.00 0.08 0.00 94 1010.0
20260510105017 23 187 3.2 8.0 0.00 0.10 0.00 94 1010.0
20260510104517 23 173 4.8 9.7 0.00 0.13 0.00 94 1010.0
20260510104017 23 185 3.2 4.8 0.00 0.15 0.00 94 1009.9
20260510103518 23 154 3.2 8.0 0.00 0.15 0.00 94 1009.9
20260510103019 23 161 6.4 9.7 0.00 0.20 0.00 94 1009.9
20260510102518 23 165 4.8 8.0 0.00 0.23 0.00 94 1009.9
20260510102017 23 150 4.8 8.0 0.00 0.28 0.00 94 1009.9
20260510101517 23 161 6.4 9.7 0.00 0.30 0.00 94 1010.0
20260510101018 23 170 8.0 11.3 0.00 0.36 0.00 94 1010.0
20260510100018 23 174 3.2 9.7 0.00 0.41 0.00 94 1010.1
20260510095517 23 172 4.8 11.3 0.00 0.46 0.00 94 1010.1
20260510095018 23 165 8.0 11.3 0.00 0.48 0.00 94 1010.1
20260510094023 23 178 3.2 8.0 0.00 0.51 0.00 94 1010.0
20260510093518 23 178 3.2 8.0 0.00 0.53 0.00 94 1010.0
20260510092017 22 188 3.2 4.8 0.00 0.56 0.00 94 1009.9
20260510091517 22 184 3.2 8.0 0.00 0.56 0.00 94 1010.0
20260510090517 22 161 4.8 9.7 0.00 0.56 0.00 94 1009.9
20260510090017 22 170 4.8 8.0 0.00 0.56 0.00 94 1009.8
20260510085518 22 186 4.8 8.0 0.00 0.56 0.00 93 1009.8
20260510085018 22 172 3.2 4.8 0.00 0.56 0.00 93 1009.8
20260510084517 22 151 3.2 4.8 0.00 0.56 0.00 93 1009.9
20260510084017 22 167 3.2 8.0 0.00 0.56 0.00 93 1009.9
20260510083518 22 180 4.8 9.7 0.00 0.56 0.00 93 1009.8
20260510083017 22 192 8.0 11.3 0.00 0.56 0.00 93 1009.8
20260510082018 22 198 8.0 11.3 0.00 0.56 0.00 93 1009.9
20260510081517 22 198 8.0 11.3 0.00 0.56 0.00 93 1009.9
20260510081018 22 191 4.8 9.7 0.00 0.56 0.00 92 1010.0
20260510080518 22 184 4.8 9.7 0.00 0.56 0.00 91 1010.0
20260510080017 22 169 4.8 9.7 0.00 0.56 0.00 91 1009.9
20260510075517 22 175 3.2 4.8 0.00 0.56 0.00 91 1009.9
20260510075017 22 178 4.8 9.7 0.00 0.56 0.00 91 1009.8
20260510074517 22 214 8.0 11.3 0.00 0.56 0.00 91 1009.8
20260510074017 22 222 4.8 8.0 0.00 0.56 0.00 90 1009.8
20260510073017 22 223 4.8 9.7 0.00 0.56 0.00 90 1009.9
20260510072517 22 217 8.0 9.7 0.00 0.56 0.00 90 1009.9
20260510072018 22 207 4.8 8.0 0.00 0.56 0.00 90 1009.9
20260510071517 22 193 3.2 4.8 0.00 0.56 0.00 89 1010.0
20260510071017 22 171 3.2 8.0 0.00 0.56 0.00 89 1010.0
20260510070517 22 194 4.8 4.8 0.00 0.56 0.00 89 1010.0
20260510070018 22 182 3.2 8.0 0.00 0.56 0.00 89 1010.2
20260510065018 22 171 3.2 4.8 0.00 0.56 0.00 88 1010.2
20260510064517 22 176 4.8 9.7 0.00 0.56 0.00 88 1010.3
20260510063517 22 139 4.8 4.8 0.00 0.56 0.00 86 1010.2
20260510063018 22 192 3.2 4.8 0.00 0.56 0.00 86 1010.1
20260510062518 22 161 4.8 8.0 0.00 0.56 0.00 86 1010.3
20260510062018 22 157 4.8 8.0 0.00 0.56 0.00 86 1010.3
20260510061521 22 157 8.0 9.7 0.00 0.56 0.00 86 1010.3
20260510061017 22 148 6.4 9.7 0.00 0.56 0.00 86 1010.4
20260510060517 22 123 8.0 9.7 0.00 0.56 0.00 86 1010.3
20260510060016 22 161 8.0 11.3 0.00 0.56 0.00 85 1010.2
20260510055518 22 154 8.0 11.3 0.00 0.56 0.00 85 1010.3
20260510055018 22 156 6.4 8.0 0.00 0.56 0.00 83 1010.2
20260510054517 22 190 4.8 9.7 0.00 0.56 0.00 83 1010.1
20260510054017 22 205 8.0 9.7 0.00 0.56 0.00 83 1010.0
20260510053018 23 208 4.8 8.0 0.00 0.56 0.00 83 1010.1
20260510052517 23 156 4.8 8.0 0.00 0.56 0.00 83 1010.1
20260510052018 23 184 4.8 9.7 0.00 0.56 0.00 82 1010.0
20260510051018 23 141 3.2 3.2 0.00 0.56 0.00 82 1010.0
20260510050518 23 158 1.6 4.8 0.00 0.56 0.00 82 1009.9
20260510050017 23 199 4.8 9.7 0.00 0.56 0.00 82 844.7
20260510045517 23 211 8.0 9.7 0.00 0.56 0.56 82 1009.7
20260510045017 23 210 4.8 8.0 0.00 0.56 0.56 81 1009.8
20260510044519 23 188 3.2 8.0 0.00 0.56 0.56 80 1009.7
20260510044017 23 204 4.8 4.8 0.00 0.56 0.56 80 1009.7
20260510043017 24 191 4.8 8.0 0.00 0.56 0.56 79 1009.8
20260510042517 24 199 3.2 9.7 0.00 0.56 0.56 79 1009.8
20260510042018 24 195 4.8 8.0 0.00 0.56 0.56 78 1009.8
20260510040517 24 200 4.8 8.0 0.00 0.56 0.56 78 1009.5
20260510040016 25 184 3.2 9.7 0.00 0.56 0.56 77 1009.5
20260510035517 25 162 8.0 12.9 0.00 0.56 0.56 78 1009.6
20260510035018 25 162 9.7 14.5 0.00 0.56 0.56 77 1009.5
20260510034517 25 162 11.3 14.5 0.00 0.56 0.56 76 1009.5
20260510034017 25 147 12.9 16.1 0.00 0.56 0.56 75 1009.5
20260510033518 25 141 14.5 19.3 0.00 0.56 0.56 74 1009.5
20260510033018 25 157 12.9 19.3 0.00 0.56 0.56 72 1009.4
20260510032517 25 158 9.7 14.5 0.00 0.56 0.56 70 1009.4
20260510031516 25 145 11.3 14.5 0.00 0.56 0.56 70 1009.4
20260510031017 25 135 9.7 14.5 0.00 0.56 0.56 70 1009.3
20260510030517 25 136 11.3 14.5 0.00 0.56 0.56 71 1009.3
20260510030017 25 131 9.7 12.9 0.00 0.56 0.56 71 1009.2
20260510025519 25 135 9.7 14.5 0.00 0.56 0.56 71 1009.1
20260510025017 25 123 9.7 14.5 0.00 0.56 0.56 72 1009.1
20260510024517 25 121 9.7 12.9 0.00 0.56 0.56 73 1009.0
20260510024018 26 133 9.7 12.9 0.00 0.56 0.56 73 1008.8
20260510023517 26 119 8.0 11.3 0.00 0.56 0.56 71 1008.7
20260510023017 26 125 8.0 12.9 0.00 0.56 0.56 70 1008.6
20260510022518 26 129 9.7 12.9 0.00 0.56 0.56 70 1008.6
20260510022017 26 143 9.7 14.5 0.00 0.56 0.56 69 1008.5
20260510021018 26 132 8.0 11.3 0.00 0.56 0.56 65 1008.4
20260510020517 27 146 9.7 14.5 0.00 0.56 0.56 63 1008.2
20260510020017 27 157 11.3 16.1 0.00 0.56 0.56 63 1008.1
20260510015516 27 150 11.3 19.3 0.00 0.56 0.56 62 1008.0
20260510015017 27 140 12.9 19.3 0.00 0.56 0.56 61 1007.8
20260510014516 27 155 12.9 16.1 0.00 0.56 0.56 61 1007.7
20260510013018 27 160 11.3 20.9 0.00 0.56 0.56 60 1007.4
20260510012516 28 161 9.7 20.9 0.00 0.56 0.56 59 1007.4
20260510012017 28 161 12.9 22.5 0.00 0.56 0.56 58 1007.3
20260510011516 28 168 11.3 22.5 0.00 0.56 0.56 58 1007.3
20260510010518 28 154 16.1 25.7 0.00 0.56 0.56 58 1007.3
20260510010017 28 163 14.5 22.5 0.00 0.56 0.56 60 1007.3
20260510005518 28 167 12.9 22.5 0.00 0.56 0.56 60 1007.2
20260510005018 29 158 14.5 22.5 0.00 0.56 0.56 59 1007.2
20260510004517 29 154 14.5 24.1 0.00 0.56 0.56 59 1007.3
20260510004019 29 151 17.7 25.7 0.00 0.56 0.56 59 1007.4
20260510003518 29 152 19.3 25.7 0.00 0.56 0.56 57 1007.3
20260510003018 30 148 19.3 25.7 0.00 0.56 0.56 56 1007.2
20260510002517 30 155 17.7 27.4 0.00 0.56 0.56 56 1007.2
20260510002017 30 153 19.3 32.2 0.00 0.56 0.56 55 1007.2
20260510001517 30 157 19.3 25.7 0.00 0.56 0.56 54 1007.1
20260510001018 30 165 14.5 27.4 0.00 0.56 0.56 53 1007.1
20260510000518 30 173 14.5 29.0 0.00 0.56 0.56 53 1007.2
20260510000018 30 158 19.3 27.4 0.00 0.56 0.56 52 1007.2
20260509235520 31 162 14.5 29.0 0.00 0.56 0.56 52 1007.1
20260509235018 31 152 17.7 27.4 0.00 0.56 0.56 51 1007.0
20260509234517 31 158 16.1 25.7 0.00 0.56 0.56 53 1007.0
20260509234017 31 148 19.3 29.0 0.00 0.56 0.56 51 1007.0
20260509233518 31 160 20.9 29.0 0.00 0.56 0.56 50 1007.0
20260509233018 31 156 20.9 27.4 0.00 0.56 0.56 49 1007.1
20260509232018 32 147 16.1 29.0 0.00 0.56 0.56 48 1007.0
20260509231516 32 151 17.7 27.4 0.00 0.56 0.56 46 1007.0
20260509231018 32 144 14.5 20.9 0.00 0.56 0.56 44 1007.0
20260509230517 33 167 9.7 19.3 0.00 0.56 0.56 43 1007.0
20260509225517 33 191 8.0 14.5 0.00 0.56 0.56 42 1007.0
20260509224517 33 203 14.5 22.5 0.00 0.56 0.56 41 1007.0
20260509224017 33 195 9.7 19.3 0.00 0.56 0.56 41 1007.1
20260509223517 33 166 11.3 14.5 0.00 0.56 0.56 42 1007.0
20260509223017 33 180 6.4 16.1 0.00 0.56 0.56 42 1007.0
20260509222517 33 186 6.4 12.9 0.00 0.56 0.56 43 1007.0
20260509222017 33 192 9.7 16.1 0.00 0.56 0.56 42 1006.9
20260509221017 33 215 9.7 16.1 0.00 0.56 0.56 41 1007.0
20260509220517 33 161 9.7 19.3 0.00 0.56 0.56 42 1007.0
20260509220016 33 201 12.9 19.3 0.00 0.56 0.56 40 1007.0
20260509215517 33 209 8.0 14.5 0.00 0.56 0.56 42 1006.9
20260509215017 33 216 4.8 11.3 0.00 0.56 0.56 41 1006.9
20260509214516 33 161 6.4 11.3 0.00 0.56 0.56 41 1006.9
20260509214017 33 221 9.7 14.5 0.00 0.56 0.56 39 1007.0
20260509213517 33 198 4.8 12.9 0.00 0.56 0.56 42 1006.9
20260509213018 33 203 9.7 14.5 0.00 0.56 0.56 41 1007.0
20260509212516 33 181 6.4 14.5 0.00 0.56 0.56 42 1007.0
20260509212017 32 202 8.0 14.5 0.00 0.56 0.56 43 1007.0
20260509211516 32 194 4.8 14.5 0.00 0.56 0.56 43 1007.0
20260509211017 32 193 4.8 12.9 0.00 0.56 0.56 43 1007.0
20260509210517 32 224 9.7 16.1 0.00 0.56 0.56 41 1007.1
20260509210016 32 198 9.7 14.5 0.00 0.56 0.56 40 1007.1
20260509205517 32 202 6.4 12.9 0.00 0.56 0.56 44 1007.1
20260509205017 32 189 8.0 12.9 0.00 0.56 0.56 44 1007.2
20260509204018 32 257 6.4 16.1 0.00 0.56 0.56 42 1007.3
20260509203516 32 194 8.0 14.5 0.00 0.56 0.56 43 1007.4
20260509203017 32 215 4.8 14.5 0.00 0.56 0.56 43 1007.4
20260509202516 32 244 3.2 12.9 0.00 0.56 0.56 44 1007.5
20260509202017 32 195 9.7 16.1 0.00 0.56 0.56 43 1007.6
20260509201517 32 162 9.7 14.5 0.00 0.56 0.56 44 1007.6
20260509200517 32 177 9.7 14.5 0.00 0.56 0.56 46 1007.6
20260509200017 32 188 11.3 19.3 0.00 0.56 0.56 45 1007.7
20260509195517 32 233 9.7 16.1 0.00 0.56 0.56 45 1007.7
20260509195018 32 221 9.7 14.5 0.00 0.56 0.56 46 1007.8
20260509194517 32 218 6.4 14.5 0.00 0.56 0.56 46 1007.9
20260509194017 32 239 6.4 16.1 0.00 0.56 0.56 45 1007.8
20260509193016 32 203 8.0 14.5 0.00 0.56 0.56 45 1007.9
20260509192516 32 169 9.7 14.5 0.00 0.56 0.56 45 1008.0
20260509192018 31 335 4.8 11.3 0.00 0.56 0.56 43 1008.0
20260509191516 31 221 4.8 14.5 0.00 0.56 0.56 46 1008.0
20260509191018 31 279 9.7 16.1 0.00 0.56 0.56 46 1008.2
20260509190517 31 230 9.7 16.1 0.00 0.56 0.56 48 1008.2
20260509190016 31 354 4.8 12.9 0.00 0.56 0.56 48 1008.3
20260509184518 31 239 8.0 14.5 0.00 0.56 0.56 50 1008.6
20260509184018 31 220 3.2 12.9 0.00 0.56 0.56 52 1008.7
20260509183518 30 242 3.2 14.5 0.00 0.56 0.56 54 1008.7
20260509183018 30 224 11.3 14.5 0.00 0.56 0.56 52 1008.8
20260509182519 30 248 6.4 14.5 0.00 0.56 0.56 53 1008.9
20260509182018 30 251 12.9 16.1 0.00 0.56 0.56 51 1008.9
20260509181518 30 286 6.4 12.9 0.00 0.56 0.56 55 1008.9
20260509180516 30 287 3.2 9.7 0.00 0.56 0.56 56 1009.1
20260509180016 30 241 8.0 14.5 0.00 0.56 0.56 56 1009.1
20260509175516 30 304 9.7 19.3 0.00 0.56 0.56 58 1009.1
20260509175017 29 250 8.0 14.5 0.00 0.56 0.56 58 1009.1
20260509174517 29 250 14.5 20.9 0.00 0.56 0.56 58 1009.1
20260509174016 29 240 9.7 16.1 0.00 0.56 0.56 60 1008.9
20260509173517 28 241 11.3 19.3 0.00 0.56 0.56 61 1008.9
20260509173016 28 246 9.7 19.3 0.00 0.56 0.56 61 1008.9
20260509172517 28 231 11.3 20.9 0.00 0.56 0.56 63 1009.1
20260509172017 28 250 12.9 20.9 0.00 0.56 0.56 63 1009.1
20260509171516 28 246 11.3 20.9 0.00 0.56 0.56 62 1009.0
20260509171018 28 224 12.9 20.9 0.00 0.56 0.56 64 1009.0
20260509170519 28 250 12.9 19.3 0.00 0.56 0.56 64 1009.0
20260509170017 27 229 9.7 16.1 0.00 0.56 0.56 66 1009.0
20260509165516 27 256 11.3 19.3 0.00 0.56 0.56 66 1009.1
20260509165017 27 236 9.7 12.9 0.00 0.56 0.56 68 1009.0
20260509164517 27 255 11.3 19.3 0.00 0.56 0.56 68 1009.2
20260509164016 27 254 11.3 16.1 0.00 0.56 0.56 68 1009.2
20260509163517 27 250 8.0 16.1 0.00 0.56 0.56 68 1009.3
20260509163017 27 236 8.0 14.5 0.00 0.56 0.56 68 1009.3
20260509162017 27 204 8.0 14.5 0.00 0.56 0.56 66 1009.4
20260509161017 27 219 8.0 12.9 0.00 0.56 0.56 65 1009.4
20260509160517 27 268 3.2 12.9 0.00 0.56 0.56 69 1009.4
20260509155017 27 256 3.2 8.0 0.00 0.56 0.56 70 1009.6
20260509154516 27 3 1.6 4.8 0.00 0.56 0.56 70 1009.8
20260509154017 27 334 4.8 9.7 0.00 0.56 0.56 72 1009.9
20260509153516 26 319 8.0 12.9 0.00 0.56 0.56 71 1009.9
20260509153019 26 338 8.0 14.5 0.00 0.56 0.56 72 1009.8
20260509152516 26 342 9.7 14.5 0.00 0.56 0.56 72 1009.9
20260509152016 26 352 8.0 12.9 0.00 0.56 0.56 72 1009.9
20260509151516 26 338 4.8 11.3 0.00 0.56 0.56 73 1009.8
20260509151017 26 4 8.0 11.3 0.00 0.56 0.56 73 1009.8
20260509150517 26 59 4.8 8.0 0.00 0.56 0.56 73 1009.9
20260509145518 26 349 1.6 3.2 0.00 0.56 0.56 73 1009.9
20260509144518 26 340 3.2 4.8 0.00 0.56 0.56 74 1009.9
20260509144018 26 197 1.6 4.8 0.00 0.56 0.56 75 1010.0
20260509143018 25 63 4.8 8.0 0.00 0.56 0.56 78 1009.6
20260509142518 25 51 3.2 8.0 0.00 0.56 0.56 78 1009.6
20260509142019 25 46 3.2 8.0 0.00 0.56 0.56 78 1009.6
20260509141517 25 10 3.2 4.8 0.00 0.56 0.56 80 1009.6
20260509141018 25 51 3.2 4.8 0.00 0.56 0.56 80 1009.7
20260509140518 25 105 1.6 4.8 0.00 0.56 0.56 81 1009.7
20260509140017 24 131 1.6 4.8 0.00 0.56 0.56 84 1009.8
20260509135518 23 158 1.6 4.8 0.00 0.56 0.56 85 1009.7
20260509135019 23 170 1.6 3.2 0.00 0.56 0.56 86 1009.6
20260509134518 23 176 0.0 3.2 0.00 0.56 0.56 86 1009.7
20260509133516 23 189 3.2 8.0 0.00 0.56 0.56 86 1009.9
20260509133017 23 192 4.8 9.7 0.00 0.56 0.56 86 1010.0
20260509132516 23 205 3.2 4.8 0.00 0.56 0.56 86 1010.0
20260509132017 23 201 3.2 4.8 0.00 0.56 0.56 87 1010.0
20260509131516 23 206 3.2 4.8 0.00 0.56 0.56 88 1010.0
20260509131016 23 187 4.8 8.0 0.00 0.56 0.56 88 1010.1